Kelowna International Airport

Airport
ICAO code: 
CYLW
Summary
ICAO Region: 
NAM
Territory: 
Location: 
Kelowna, British Columbia,
Coordinates: 
Aerial View: 
49° 57' 6.964" N, 119° 23' 7.369" W
Airport CFIT: 
Altimeter Temperature Error Correction
Airport RE: 
Crosswind Landings
Metar
Observation
CYLW 190100Z AUTO 00000KT 9SM OVC091 01/M00 A3015 RMK SLP230
Station
Kelowna Airport
Date/Time
2022-01-19 01:00:00
Wind direction
Wind speed
00 kts
Lowest cloud amount
overcast
Temperature
1°C
Dew point
-0°C
Humidity
93%
Weather condition
n/a

Description

International airport located at Kelowna, British Columbia, Canada.

Climatology

Semi-arid Steppe climate (Köppen climate classification BSk) - Little precipitation, hot summers and cold winters, sometimes with large changes in temperature in a 24 hour period.

Runways

Designator Length Width Surface Rops
16/34 2225 61 ASP Yes/Yes
Airport map: 
Aerial View: 

Accidents and Serious Incidents at or in the vicinity of CYLW

SKYbrary Partners:

Safety knowledge contributed by: